Time,TemperatureF,DewpointF,PressureIn,WindDirection,WindDirectionDegrees,WindSpeedMPH,WindSpeedGustMPH,Humidity,HourlyPrecipIn,Conditions,Clouds,dailyrainin,SoftwareType,DateUTC
2013-02-26 00:00:00,28.8,23.4,30.14,WSW,247,0.0,0.0,80,0.00,,OVC050,0.00,VWS V13.00,2013-02-26 05:00:00,
2013-02-26 00:01:00,28.8,23.7,30.14,WSW,247,0.0,0.0,81,0.00,,OVC050,0.00,VWS V13.00,2013-02-26 05:01:00,
2013-02-26 00:06:00,28.6,23.5,30.14,WSW,247,0.0,0.0,81,0.00,,OVC050,0.00,VWS V13.00,2013-02-26 05:06:00,
2013-02-26 00:11:00,28.4,23.6,30.14,WSW,247,0.0,0.0,82,0.00,,OVC050,0.00,VWS V13.00,2013-02-26 05:11:00,
2013-02-26 00:16:00,28.0,23.3,30.14,WSW,247,0.0,0.0,82,0.00,,OVC050,0.00,VWS V13.00,2013-02-26 05:16:00,
2013-02-26 00:21:00,28.0,23.5,30.14,WSW,247,0.0,0.0,83,0.00,,OVC050,0.00,VWS V13.00,2013-02-26 05:21:00,
2013-02-26 00:26:00,28.0,23.5,30.14,WSW,247,0.0,0.0,83,0.00,,OVC050,0.00,VWS V13.00,2013-02-26 05:26:00,
2013-02-26 00:31:00,28.0,23.5,30.14,WSW,247,0.0,0.0,83,0.00,,OVC048,0.00,VWS V13.00,2013-02-26 05:31:00,
2013-02-26 00:36:00,27.9,23.7,30.14,WSW,247,0.0,0.0,84,0.00,,OVC048,0.00,VWS V13.00,2013-02-26 05:36:00,
2013-02-26 00:41:00,27.5,23.3,30.14,WSW,247,0.0,0.0,84,0.00,,OVC048,0.00,VWS V13.00,2013-02-26 05:41:00,
2013-02-26 00:46:00,27.3,23.1,30.14,WSW,247,0.0,0.0,84,0.00,,OVC048,0.00,VWS V13.00,2013-02-26 05:46:00,
2013-02-26 00:51:00,27.3,23.1,30.14,WSW,247,0.0,0.0,84,0.00,,OVC048,0.00,VWS V13.00,2013-02-26 05:51:00,
2013-02-26 00:56:00,27.1,23.0,30.14,WSW,247,0.0,0.0,84,0.00,,OVC048,0.00,VWS V13.00,2013-02-26 05:56:00,
2013-02-26 01:01:00,27.0,22.8,30.16,WSW,247,0.0,0.0,84,0.00,,OVC048,0.00,VWS V13.00,2013-02-26 06:01:00,
2013-02-26 01:06:00,27.0,22.8,30.16,WSW,247,0.0,0.0,84,0.00,,OVC048,0.00,VWS V13.00,2013-02-26 06:06:00,
2013-02-26 01:11:00,26.4,22.2,30.16,WSW,247,0.0,0.0,84,0.00,,OVC048,0.00,VWS V13.00,2013-02-26 06:11:00,
2013-02-26 01:17:00,26.4,22.2,30.16,WSW,247,0.0,0.0,84,0.00,,OVC048,0.00,VWS V13.00,2013-02-26 06:17:00,
2013-02-26 01:22:00,26.2,22.1,30.16,WSW,247,0.0,0.0,84,0.00,,OVC048,0.00,VWS V13.00,2013-02-26 06:22:00,
2013-02-26 01:27:00,26.4,22.5,30.16,WSW,247,0.0,0.0,85,0.00,,OVC048,0.00,VWS V13.00,2013-02-26 06:27:00,
2013-02-26 01:32:00,26.2,22.4,30.19,WSW,247,0.0,0.0,85,0.00,,OVC048,0.00,VWS V13.00,2013-02-26 06:32:00,
2013-02-26 01:37:00,26.2,22.4,30.19,WSW,247,0.0,0.0,85,0.00,,OVC048,0.00,VWS V13.00,2013-02-26 06:37:00,
2013-02-26 01:42:00,26.2,22.4,30.19,WSW,247,0.0,0.0,85,0.00,,OVC048,0.00,VWS V13.00,2013-02-26 06:42:00,
2013-02-26 01:47:00,26.6,22.7,30.16,WSW,247,0.0,0.0,85,0.00,,OVC048,0.00,VWS V13.00,2013-02-26 06:47:00,
2013-02-26 01:52:00,27.0,23.1,30.16,WSW,247,0.0,0.0,85,0.00,,OVC048,0.00,VWS V13.00,2013-02-26 06:52:00,
2013-02-26 01:57:00,27.1,23.5,30.16,WSW,247,0.0,0.0,86,0.00,,OVC048,0.00,VWS V13.00,2013-02-26 06:57:00,
2013-02-26 02:02:00,27.0,23.3,30.19,WSW,247,0.0,0.0,86,0.00,,OVC048,0.00,VWS V13.00,2013-02-26 07:02:00,
2013-02-26 02:07:00,26.6,23.3,30.19,WSW,247,0.0,0.0,87,0.00,,OVC048,0.00,VWS V13.00,2013-02-26 07:07:00,
2013-02-26 02:12:00,27.0,23.3,30.19,WSW,247,0.0,0.0,86,0.00,,OVC048,0.00,VWS V13.00,2013-02-26 07:12:00,
2013-02-26 02:17:00,26.8,23.4,30.16,WSW,247,0.0,0.0,87,0.00,,OVC048,0.00,VWS V13.00,2013-02-26 07:17:00,
2013-02-26 02:22:00,27.0,23.6,30.16,WSW,247,0.0,0.0,87,0.00,,OVC048,0.00,VWS V13.00,2013-02-26 07:22:00,
2013-02-26 02:28:00,27.0,23.6,30.16,WSW,247,0.0,3.6,87,0.00,,OVC048,0.00,VWS V13.00,2013-02-26 07:28:00,
2013-02-26 02:33:00,27.0,23.9,30.16,WSW,247,0.0,3.6,88,0.00,,OVC046,0.00,VWS V13.00,2013-02-26 07:33:00,
2013-02-26 02:38:00,26.6,23.5,30.16,WSW,247,0.0,3.6,88,0.00,,OVC046,0.00,VWS V13.00,2013-02-26 07:38:00,
2013-02-26 02:43:00,26.2,23.2,30.16,WSW,247,0.0,0.0,88,0.00,,OVC046,0.00,VWS V13.00,2013-02-26 07:43:00,
2013-02-26 02:48:00,26.2,23.2,30.19,WSW,247,0.0,0.0,88,0.00,,OVC046,0.00,VWS V13.00,2013-02-26 07:48:00,
2013-02-26 02:53:00,26.4,23.4,30.19,WSW,247,0.0,0.0,88,0.00,,OVC046,0.00,VWS V13.00,2013-02-26 07:53:00,
2013-02-26 02:58:00,26.4,23.4,30.19,WSW,247,0.0,0.0,88,0.00,,OVC046,0.00,VWS V13.00,2013-02-26 07:58:00,
2013-02-26 03:03:00,26.2,23.2,30.16,WSW,247,0.0,0.0,88,0.00,,OVC046,0.00,VWS V13.00,2013-02-26 08:03:00,
2013-02-26 03:08:00,26.1,23.0,30.16,WSW,247,0.0,0.0,88,0.00,,OVC046,0.00,VWS V13.00,2013-02-26 08:08:00,
2013-02-26 03:13:00,25.5,22.5,30.16,WSW,247,0.0,0.0,88,0.00,,OVC046,0.00,VWS V13.00,2013-02-26 08:13:00,
2013-02-26 03:18:00,25.9,22.8,30.16,WSW,247,0.0,0.0,88,0.00,,OVC046,0.00,VWS V13.00,2013-02-26 08:18:00,
2013-02-26 03:23:00,26.1,23.3,30.16,WSW,247,0.0,0.0,89,0.00,,OVC046,0.00,VWS V13.00,2013-02-26 08:23:00,
2013-02-26 03:28:00,25.5,22.7,30.16,WSW,247,0.0,0.0,89,0.00,,OVC046,0.00,VWS V13.00,2013-02-26 08:28:00,
2013-02-26 03:33:00,25.3,22.6,30.16,WSW,247,0.0,0.0,89,0.00,,OVC048,0.00,VWS V13.00,2013-02-26 08:33:00,
2013-02-26 03:38:00,25.2,22.4,30.16,WSW,247,0.0,0.0,89,0.00,,OVC048,0.00,VWS V13.00,2013-02-26 08:38:00,
2013-02-26 03:43:00,25.0,22.2,30.16,WSW,247,0.0,0.0,89,0.00,,OVC048,0.00,VWS V13.00,2013-02-26 08:43:00,
2013-02-26 03:48:00,24.8,22.0,30.16,WSW,247,0.0,0.0,89,0.00,,OVC048,0.00,VWS V13.00,2013-02-26 08:48:00,
2013-02-26 03:53:00,24.6,21.9,30.16,WSW,247,0.0,0.0,89,0.00,,OVC048,0.00,VWS V13.00,2013-02-26 08:53:00,
2013-02-26 03:58:00,24.6,21.9,30.16,WSW,247,0.0,0.0,89,0.00,,OVC048,0.00,VWS V13.00,2013-02-26 08:58:00,
2013-02-26 04:04:00,24.4,21.7,30.16,WSW,247,0.0,0.0,89,0.00,,OVC048,0.00,VWS V13.00,2013-02-26 09:04:00,
2013-02-26 04:09:00,24.4,21.7,30.16,WSW,247,0.0,0.0,89,0.00,,OVC048,0.00,VWS V13.00,2013-02-26 09:09:00,
2013-02-26 04:14:00,24.4,21.4,30.16,WSW,247,0.0,0.0,88,0.00,,OVC048,0.00,VWS V13.00,2013-02-26 09:14:00,
2013-02-26 04:19:00,24.3,21.2,30.16,WSW,247,0.0,0.0,88,0.00,,OVC048,0.00,VWS V13.00,2013-02-26 09:19:00,
2013-02-26 04:24:00,24.3,21.2,30.16,WSW,247,0.0,0.0,88,0.00,,OVC048,0.00,VWS V13.00,2013-02-26 09:24:00,
2013-02-26 04:29:00,24.3,21.2,30.16,WSW,247,0.0,0.0,88,0.00,,OVC048,0.00,VWS V13.00,2013-02-26 09:29:00,
2013-02-26 04:34:00,24.3,21.2,30.16,WSW,247,0.0,0.0,88,0.00,,OVC048,0.00,VWS V13.00,2013-02-26 09:34:00,
2013-02-26 04:39:00,24.3,21.2,30.16,WSW,247,0.0,0.0,88,0.00,,CLR,0.00,VWS V13.00,2013-02-26 09:39:00,
2013-02-26 04:44:00,24.1,21.0,30.16,WSW,247,0.0,0.0,88,0.00,,CLR,0.00,VWS V13.00,2013-02-26 09:44:00,
2013-02-26 04:49:00,24.1,21.0,30.16,WSW,247,0.0,0.0,88,0.00,,CLR,0.00,VWS V13.00,2013-02-26 09:49:00,
2013-02-26 04:54:00,24.4,21.7,30.16,WSW,247,0.0,0.0,89,0.00,,CLR,0.00,VWS V13.00,2013-02-26 09:54:00,
2013-02-26 04:59:00,24.4,21.7,30.16,WSW,247,0.0,0.0,89,0.00,,CLR,0.00,VWS V13.00,2013-02-26 09:59:00,
2013-02-26 05:04:00,23.9,21.1,30.16,WSW,247,0.0,0.0,89,0.00,,CLR,0.00,VWS V13.00,2013-02-26 10:04:00,
2013-02-26 05:09:00,24.1,21.3,30.16,WSW,247,0.0,0.0,89,0.00,,CLR,0.00,VWS V13.00,2013-02-26 10:09:00,
2013-02-26 05:14:00,24.1,21.3,30.16,WSW,247,0.0,0.0,89,0.00,,CLR,0.00,VWS V13.00,2013-02-26 10:14:00,
2013-02-26 05:19:00,23.7,21.0,30.16,WSW,247,0.0,0.0,89,0.00,,CLR,0.00,VWS V13.00,2013-02-26 10:19:00,
2013-02-26 05:24:00,23.7,21.0,30.16,WSW,247,0.0,0.0,89,0.00,,CLR,0.00,VWS V13.00,2013-02-26 10:24:00,
2013-02-26 05:29:00,23.7,21.0,30.16,WSW,247,0.0,0.0,89,0.00,,CLR,0.00,VWS V13.00,2013-02-26 10:29:00,
2013-02-26 05:34:00,23.7,21.0,30.16,WSW,247,0.0,0.0,89,0.00,,CLR,0.00,VWS V13.00,2013-02-26 10:34:00,
2013-02-26 05:40:00,23.7,21.0,30.16,WSW,247,0.0,0.0,89,0.00,,,0.00,VWS V13.00,2013-02-26 10:40:00,
2013-02-26 05:45:00,24.4,21.7,30.16,WSW,247,0.0,2.2,89,0.00,,,0.00,VWS V13.00,2013-02-26 10:45:00,
2013-02-26 05:50:00,24.4,21.9,30.16,WSW,247,0.0,2.2,90,0.00,,,0.00,VWS V13.00,2013-02-26 10:50:00,
2013-02-26 05:55:00,24.4,21.9,30.16,WSW,247,0.0,2.2,90,0.00,,,0.00,VWS V13.00,2013-02-26 10:55:00,
2013-02-26 06:00:00,24.4,21.9,30.16,WSW,247,0.0,2.7,90,0.00,,,0.00,VWS V13.00,2013-02-26 11:00:00,
2013-02-26 06:05:00,24.4,21.9,30.16,WSW,247,0.0,0.0,90,0.00,,,0.00,VWS V13.00,2013-02-26 11:05:00,
2013-02-26 06:10:00,24.3,21.8,30.16,WSW,247,0.0,0.0,90,0.00,,,0.00,VWS V13.00,2013-02-26 11:10:00,
2013-02-26 06:15:00,24.3,21.8,30.16,WSW,247,0.0,0.0,90,0.00,,,0.00,VWS V13.00,2013-02-26 11:15:00,
2013-02-26 06:20:00,24.4,22.2,30.16,WSW,247,0.0,0.0,91,0.00,,,0.00,VWS V13.00,2013-02-26 11:20:00,
2013-02-26 06:25:00,24.3,22.0,30.16,WSW,247,0.0,0.0,91,0.00,,,0.00,VWS V13.00,2013-02-26 11:25:00,
2013-02-26 06:30:00,24.1,21.8,30.16,WSW,247,0.0,0.0,91,0.00,,,0.00,VWS V13.00,2013-02-26 11:30:00,
2013-02-26 06:35:00,23.9,21.7,30.16,WSW,247,0.0,0.0,91,0.00,,,0.00,VWS V13.00,2013-02-26 11:35:00,
2013-02-26 06:40:00,23.7,21.5,30.16,WSW,247,0.0,0.0,91,0.00,,,0.00,VWS V13.00,2013-02-26 11:40:00,
2013-02-26 06:45:00,23.7,21.5,30.16,WSW,247,0.0,0.0,91,0.00,,,0.00,VWS V13.00,2013-02-26 11:45:00,
2013-02-26 06:50:00,23.9,21.7,30.16,WSW,247,0.0,0.0,91,0.00,,,0.00,VWS V13.00,2013-02-26 11:50:00,
2013-02-26 06:55:00,23.9,21.7,30.16,WSW,247,0.0,0.0,91,0.00,,,0.00,VWS V13.00,2013-02-26 11:55:00,
2013-02-26 07:00:00,24.3,22.0,30.16,WSW,247,0.0,0.0,91,0.00,,,0.00,VWS V13.00,2013-02-26 12:00:00,
2013-02-26 07:05:00,24.6,22.4,30.16,WSW,247,0.0,0.0,91,0.00,,,0.00,VWS V13.00,2013-02-26 12:05:00,
2013-02-26 07:11:00,25.3,23.1,30.16,WSW,247,0.0,0.0,91,0.00,,,0.00,VWS V13.00,2013-02-26 12:11:00,
2013-02-26 07:16:00,25.7,23.4,30.16,WSW,247,0.0,0.0,91,0.00,,,0.00,VWS V13.00,2013-02-26 12:16:00,
2013-02-26 07:21:00,25.9,23.6,30.16,WSW,247,0.0,0.0,91,0.00,,,0.00,VWS V13.00,2013-02-26 12:21:00,
2013-02-26 07:26:00,26.1,23.8,30.16,WSW,247,0.0,0.0,91,0.00,,,0.00,VWS V13.00,2013-02-26 12:26:00,
2013-02-26 07:31:00,26.6,24.3,30.16,WSW,247,0.0,0.0,91,0.00,,,0.00,VWS V13.00,2013-02-26 12:31:00,
2013-02-26 07:36:00,27.0,24.7,30.16,WSW,247,0.0,0.0,91,0.00,,,0.00,VWS V13.00,2013-02-26 12:36:00,
2013-02-26 07:41:00,27.5,25.2,30.16,WSW,247,0.0,0.0,91,0.00,,,0.00,VWS V13.00,2013-02-26 12:41:00,
2013-02-26 07:46:00,28.2,25.9,30.19,WSW,247,0.0,0.0,91,0.00,,,0.00,VWS V13.00,2013-02-26 12:46:00,
2013-02-26 07:51:00,28.9,26.6,30.19,WSW,247,0.0,0.0,91,0.00,,,0.00,VWS V13.00,2013-02-26 12:51:00,
2013-02-26 07:56:00,30.2,27.9,30.19,WSW,247,2.7,3.6,91,0.00,,,0.00,VWS V13.00,2013-02-26 12:56:00,
2013-02-26 08:01:00,31.6,29.3,30.19,East,92,3.1,3.6,91,0.00,,,0.00,VWS V13.00,2013-02-26 13:01:00,
2013-02-26 08:06:00,32.5,29.9,30.19,ESE,111,3.6,5.4,90,0.00,,,0.00,VWS V13.00,2013-02-26 13:06:00,
2013-02-26 08:11:00,32.9,30.3,30.19,SE,131,5.8,5.8,90,0.00,,,0.00,VWS V13.00,2013-02-26 13:11:00,
2013-02-26 08:16:00,33.3,30.4,30.19,SE,127,3.6,5.8,89,0.00,,,0.00,VWS V13.00,2013-02-26 13:16:00,
2013-02-26 08:21:00,33.6,30.7,30.19,East,99,4.0,4.5,89,0.00,,,0.00,VWS V13.00,2013-02-26 13:21:00,
2013-02-26 08:26:00,34.0,30.5,30.19,East,81,4.0,5.4,87,0.00,,,0.00,VWS V13.00,2013-02-26 13:26:00,
2013-02-26 08:32:00,34.2,30.4,30.19,ENE,77,3.6,5.4,86,0.00,,CLR,0.00,VWS V13.00,2013-02-26 13:32:00,
2013-02-26 08:37:00,34.5,30.5,30.19,East,89,4.0,5.4,85,0.00,,CLR,0.00,VWS V13.00,2013-02-26 13:37:00,
2013-02-26 08:42:00,34.7,30.4,30.19,ENE,69,3.6,4.5,84,0.00,,CLR,0.00,VWS V13.00,2013-02-26 13:42:00,
2013-02-26 08:47:00,34.9,30.5,30.19,ENE,69,3.6,4.9,84,0.00,,CLR,0.00,VWS V13.00,2013-02-26 13:47:00,
2013-02-26 08:52:00,34.9,30.2,30.19,ENE,73,5.4,5.8,83,0.00,,CLR,0.00,VWS V13.00,2013-02-26 13:52:00,
2013-02-26 08:57:00,35.1,30.1,30.19,East,85,4.0,5.8,82,0.00,,CLR,0.00,VWS V13.00,2013-02-26 13:57:00,
2013-02-26 09:02:00,35.2,30.3,30.19,ENE,72,3.6,5.4,82,0.00,,CLR,0.00,VWS V13.00,2013-02-26 14:02:00,
2013-02-26 09:07:00,35.4,30.5,30.19,ENE,74,4.0,5.8,82,0.00,,CLR,0.00,VWS V13.00,2013-02-26 14:07:00,
2013-02-26 09:12:00,35.6,30.4,30.19,ENE,69,4.0,5.8,81,0.00,,CLR,0.00,VWS V13.00,2013-02-26 14:12:00,
2013-02-26 09:17:00,35.8,30.5,30.19,ENE,69,4.9,5.8,81,0.00,,CLR,0.00,VWS V13.00,2013-02-26 14:17:00,
2013-02-26 09:22:00,36.0,30.4,30.19,ENE,76,3.6,5.4,80,0.00,,CLR,0.00,VWS V13.00,2013-02-26 14:22:00,
2013-02-26 09:27:00,36.1,30.6,30.19,ENE,69,4.5,5.8,80,0.00,,CLR,0.00,VWS V13.00,2013-02-26 14:27:00,
2013-02-26 09:32:00,36.3,30.4,30.16,ENE,64,3.6,5.8,79,0.00,,-RA,0.00,VWS V13.00,2013-02-26 14:32:00,
2013-02-26 09:37:00,36.5,30.6,30.16,ENE,64,4.0,5.8,79,0.00,,-RA,0.00,VWS V13.00,2013-02-26 14:37:00,
2013-02-26 09:42:00,36.7,30.5,30.16,East,90,3.6,4.0,78,0.00,,-RA,0.00,VWS V13.00,2013-02-26 14:42:00,
2013-02-26 09:47:00,36.9,30.3,30.19,ENE,70,4.0,4.9,77,0.00,,-RA,0.00,VWS V13.00,2013-02-26 14:47:00,
2013-02-26 09:52:00,37.0,30.2,30.19,ENE,78,3.6,4.9,76,0.00,,-RA,0.00,VWS V13.00,2013-02-26 14:52:00,
2013-02-26 09:57:00,37.4,30.2,30.19,ENE,75,3.6,5.4,75,0.00,,-RA,0.00,VWS V13.00,2013-02-26 14:57:00,
2013-02-26 10:03:00,37.6,30.1,30.16,East,93,2.7,3.6,74,0.00,,-RA,0.00,VWS V13.00,2013-02-26 15:03:00,
2013-02-26 10:07:00,37.8,29.6,30.16,ENE,74,4.0,6.3,72,0.00,,-RA,0.00,VWS V13.00,2013-02-26 15:07:00,
2013-02-26 10:13:00,37.9,29.4,30.16,ENE,78,4.0,6.3,71,0.00,,-RA,0.00,VWS V13.00,2013-02-26 15:13:00,
2013-02-26 10:18:00,38.1,29.2,30.19,East,87,4.0,6.3,70,0.00,,-RA,0.00,VWS V13.00,2013-02-26 15:18:00,
2013-02-26 10:23:00,38.5,29.6,30.19,East,99,3.1,5.4,70,0.00,,-RA,0.00,VWS V13.00,2013-02-26 15:23:00,
2013-02-26 10:28:00,38.1,28.9,30.19,East,94,3.6,5.4,69,0.00,,-RA,0.00,VWS V13.00,2013-02-26 15:28:00,
2013-02-26 10:33:00,38.3,29.0,30.19,East,79,3.1,6.3,69,0.00,,-RA,0.00,VWS V13.00,2013-02-26 15:33:00,
2013-02-26 10:38:00,38.8,29.5,30.19,East,79,3.1,6.3,69,0.00,,-RA,0.00,VWS V13.00,2013-02-26 15:38:00,
2013-02-26 10:43:00,38.8,28.8,30.19,East,88,2.7,4.9,67,0.00,,-RA,0.00,VWS V13.00,2013-02-26 15:43:00,
2013-02-26 10:48:00,39.4,28.6,30.19,SE,144,7.2,7.2,65,0.00,,-RA,0.00,VWS V13.00,2013-02-26 15:48:00,
2013-02-26 10:53:00,40.1,28.9,30.19,ESE,105,5.8,11.0,64,0.00,,-RA,0.00,VWS V13.00,2013-02-26 15:53:00,
2013-02-26 10:58:00,40.1,28.1,30.19,ESE,115,6.3,11.0,62,0.00,,-RA,0.00,VWS V13.00,2013-02-26 15:58:00,
2013-02-26 11:03:00,40.5,28.1,30.16,ESE,120,3.1,8.3,61,0.00,,-RA,0.00,VWS V13.00,2013-02-26 16:03:00,
2013-02-26 11:08:00,39.9,26.8,30.16,ENE,68,6.3,8.3,59,0.00,,-RA,0.00,VWS V13.00,2013-02-26 16:08:00,
2013-02-26 11:13:00,40.1,26.5,30.16,ESE,122,7.2,8.3,58,0.00,,-RA,0.00,VWS V13.00,2013-02-26 16:13:00,
2013-02-26 11:18:00,40.5,26.9,30.19,ESE,119,3.6,8.3,58,0.00,,-RA,0.00,VWS V13.00,2013-02-26 16:18:00,
2013-02-26 11:23:00,41.0,27.8,30.19,ESE,115,3.1,5.8,59,0.00,,-RA,0.00,VWS V13.00,2013-02-26 16:23:00,
2013-02-26 11:28:00,41.0,27.4,30.19,ESE,112,4.5,11.9,58,0.00,,-RA,0.00,VWS V13.00,2013-02-26 16:28:00,
2013-02-26 11:33:00,40.8,27.2,30.19,ESE,111,5.8,11.9,58,0.00,,-RA,0.00,VWS V13.00,2013-02-26 16:33:00,
2013-02-26 11:38:00,40.8,27.2,30.19,East,101,6.3,11.9,58,0.00,,-RA,0.00,VWS V13.00,2013-02-26 16:38:00,
2013-02-26 11:43:00,40.5,26.4,30.19,East,101,6.3,8.7,57,0.00,,-RA,0.00,VWS V13.00,2013-02-26 16:43:00,
2013-02-26 11:48:00,40.3,26.3,30.16,ESE,110,6.3,8.7,57,0.00,,-RA,0.00,VWS V13.00,2013-02-26 16:48:00,
2013-02-26 11:53:00,40.5,26.9,30.16,East,86,5.8,8.7,58,0.00,,-RA,0.00,VWS V13.00,2013-02-26 16:53:00,
2013-02-26 11:58:00,40.6,27.0,30.16,SE,126,7.6,8.7,58,0.00,,-RA,0.00,VWS V13.00,2013-02-26 16:58:00,
2013-02-26 12:04:00,40.6,26.6,30.16,ESE,110,4.5,10.1,57,0.00,,-RA,0.00,VWS V13.00,2013-02-26 17:04:00,
2013-02-26 12:09:00,41.2,27.5,30.16,ESE,114,4.0,10.1,58,0.00,,-RA,0.00,VWS V13.00,2013-02-26 17:09:00,
2013-02-26 12:14:00,41.0,27.0,30.16,ESE,119,5.4,10.1,57,0.00,,-RA,0.00,VWS V13.00,2013-02-26 17:14:00,
2013-02-26 12:19:00,41.2,27.1,30.16,ESE,118,7.6,10.5,57,0.00,,-RA,0.00,VWS V13.00,2013-02-26 17:19:00,
2013-02-26 12:24:00,41.0,26.5,30.16,SE,127,9.6,9.6,56,0.00,,-RA,0.00,VWS V13.00,2013-02-26 17:24:00,
2013-02-26 12:29:00,41.2,27.1,30.16,ESE,112,4.9,9.6,57,0.00,,-RA,0.00,VWS V13.00,2013-02-26 17:29:00,
2013-02-26 12:34:00,41.4,26.4,30.16,SSE,151,8.3,9.6,55,0.00,,SCT035,0.00,VWS V13.00,2013-02-26 17:34:00,
2013-02-26 12:39:00,41.7,26.8,30.16,SE,136,5.8,10.5,55,0.00,,SCT035,0.00,VWS V13.00,2013-02-26 17:39:00,
2013-02-26 12:44:00,41.9,26.9,30.16,SSE,154,8.3,8.3,55,0.00,,SCT035,0.00,VWS V13.00,2013-02-26 17:44:00,
2013-02-26 12:49:00,41.2,25.4,30.16,SE,140,4.0,8.7,53,0.00,,SCT035,0.00,VWS V13.00,2013-02-26 17:49:00,
2013-02-26 12:54:00,41.0,25.2,30.16,East,96,6.3,10.1,53,0.00,,SCT035,0.00,VWS V13.00,2013-02-26 17:54:00,
2013-02-26 12:59:00,40.6,25.3,30.16,East,95,6.3,10.1,54,0.00,,SCT035,0.00,VWS V13.00,2013-02-26 17:59:00,
2013-02-26 13:04:00,40.6,25.3,30.14,SE,126,6.7,6.7,54,0.00,,SCT035,0.00,VWS V13.00,2013-02-26 18:04:00,
2013-02-26 13:09:00,40.5,25.1,30.14,East,90,5.8,8.3,54,0.00,,SCT035,0.00,VWS V13.00,2013-02-26 18:09:00,
2013-02-26 13:14:00,40.6,25.3,30.14,East,97,3.6,10.1,54,0.00,,SCT035,0.00,VWS V13.00,2013-02-26 18:14:00,
2013-02-26 13:19:00,41.2,25.8,30.14,East,85,5.4,10.1,54,0.00,,SCT035,0.00,VWS V13.00,2013-02-26 18:19:00,
2013-02-26 13:24:00,41.0,25.2,30.14,ESE,110,6.3,8.3,53,0.00,,SCT035,0.00,VWS V13.00,2013-02-26 18:24:00,
2013-02-26 13:29:00,41.0,25.2,30.14,East,99,8.7,10.5,53,0.00,,SCT035,0.00,VWS V13.00,2013-02-26 18:29:00,
2013-02-26 13:34:00,41.2,25.4,30.14,East,101,4.9,10.5,53,0.00,,OVC034,0.00,VWS V13.00,2013-02-26 18:34:00,
2013-02-26 13:39:00,41.2,24.9,30.14,SE,133,8.3,11.0,52,0.00,,OVC034,0.00,VWS V13.00,2013-02-26 18:39:00,
2013-02-26 13:44:00,41.4,25.5,30.14,East,94,4.5,8.3,53,0.00,,OVC034,0.00,VWS V13.00,2013-02-26 18:44:00,
2013-02-26 13:50:00,41.2,25.4,30.11,East,88,5.4,8.3,53,0.00,,OVC034,0.00,VWS V13.00,2013-02-26 18:50:00,
2013-02-26 13:54:00,41.2,25.4,30.11,SE,124,3.1,8.3,53,0.00,,OVC034,0.00,VWS V13.00,2013-02-26 18:54:00,
2013-02-26 13:59:00,40.8,25.5,30.11,East,98,5.8,8.3,54,0.00,,OVC034,0.00,VWS V13.00,2013-02-26 18:59:00,
2013-02-26 14:05:00,40.5,25.1,30.14,SSE,151,8.3,11.0,54,0.00,,OVC038,0.00,VWS V13.00,2013-02-26 19:05:00,
2013-02-26 14:10:00,40.5,25.1,30.14,South,183,5.8,11.0,54,0.00,,OVC038,0.00,VWS V13.00,2013-02-26 19:10:00,
2013-02-26 14:15:00,40.5,25.1,30.14,East,98,7.6,11.0,54,0.00,,OVC038,0.00,VWS V13.00,2013-02-26 19:15:00,
2013-02-26 14:20:00,40.3,25.4,30.11,ESE,118,4.0,11.0,55,0.00,,OVC034,0.00,VWS V13.00,2013-02-26 19:20:00,
2013-02-26 14:25:00,40.3,25.4,30.11,East,96,5.8,8.7,55,0.00,,OVC038,0.00,VWS V13.00,2013-02-26 19:25:00,
2013-02-26 14:30:00,40.3,25.4,30.11,ENE,77,6.7,8.7,55,0.00,,OVC038,0.00,VWS V13.00,2013-02-26 19:30:00,
2013-02-26 14:35:00,40.1,25.2,30.11,ESE,109,5.8,8.7,55,0.00,,OVC038,0.00,VWS V13.00,2013-02-26 19:35:00,
2013-02-26 14:40:00,39.7,24.9,30.11,ESE,119,6.3,10.5,55,0.00,,OVC038,0.00,VWS V13.00,2013-02-26 19:40:00,
2013-02-26 14:45:00,39.6,24.7,30.11,East,84,3.6,11.0,55,0.00,,OVC038,0.00,VWS V13.00,2013-02-26 19:45:00,
2013-02-26 14:50:00,39.6,25.2,30.11,SE,126,8.1,12.3,56,0.00,,OVC038,0.00,VWS V13.00,2013-02-26 19:50:00,
2013-02-26 14:55:00,39.6,25.2,30.11,SE,136,3.6,12.3,56,0.00,,OVC038,0.00,VWS V13.00,2013-02-26 19:55:00,
2013-02-26 15:00:00,39.6,25.2,30.11,ESE,111,2.7,2.7,56,0.00,,OVC038,0.00,VWS V13.00,2013-02-26 20:00:00,
2013-02-26 15:05:00,39.4,24.6,30.11,SE,124,8.1,8.1,55,0.00,,OVC038,0.00,VWS V13.00,2013-02-26 20:05:00,
2013-02-26 15:10:00,39.4,24.6,30.11,East,92,6.7,8.1,55,0.00,,OVC038,0.00,VWS V13.00,2013-02-26 20:10:00,
2013-02-26 15:15:00,39.6,24.7,30.08,East,91,8.1,8.7,55,0.00,,OVC038,0.00,VWS V13.00,2013-02-26 20:15:00,
2013-02-26 15:20:00,39.6,24.7,30.08,ESE,106,3.1,4.0,55,0.00,,OVC038,0.00,VWS V13.00,2013-02-26 20:20:00,
2013-02-26 15:25:00,39.7,24.9,30.08,East,93,5.4,7.2,55,0.00,,OVC038,0.00,VWS V13.00,2013-02-26 20:25:00,
2013-02-26 15:30:00,39.7,24.9,30.08,ESE,119,3.6,8.3,55,0.00,,OVC038,0.00,VWS V13.00,2013-02-26 20:30:00,
2013-02-26 15:35:00,39.6,24.7,30.08,SE,129,7.6,8.7,55,0.00,,OVC040,0.00,VWS V13.00,2013-02-26 20:35:00,
2013-02-26 15:40:00,39.4,24.6,30.08,ESE,104,8.1,8.1,55,0.00,,OVC040,0.00,VWS V13.00,2013-02-26 20:40:00,
2013-02-26 15:45:00,39.2,24.8,30.08,SE,124,5.4,8.7,56,0.00,,OVC040,0.00,VWS V13.00,2013-02-26 20:45:00,
2013-02-26 15:50:00,39.2,24.8,30.11,ESE,103,5.8,10.1,56,0.00,,OVC040,0.00,VWS V13.00,2013-02-26 20:50:00,
2013-02-26 15:56:00,38.8,24.5,30.11,SE,132,5.8,10.1,56,0.00,,OVC040,0.00,VWS V13.00,2013-02-26 20:56:00,
2013-02-26 16:01:00,38.8,24.9,30.08,East,84,4.9,5.4,57,0.00,,OVC040,0.00,VWS V13.00,2013-02-26 21:01:00,
2013-02-26 16:06:00,38.7,24.8,30.08,ENE,67,6.3,6.3,57,0.00,,OVC040,0.00,VWS V13.00,2013-02-26 21:06:00,
2013-02-26 16:11:00,38.7,24.8,30.08,SE,126,5.8,7.6,57,0.00,,OVC040,0.00,VWS V13.00,2013-02-26 21:11:00,
2013-02-26 16:16:00,38.7,25.2,30.08,ENE,63,4.0,7.6,58,0.00,,OVC040,0.00,VWS V13.00,2013-02-26 21:16:00,
2013-02-26 16:21:00,38.5,25.0,30.08,ESE,116,4.0,4.0,58,0.00,,OVC040,0.00,VWS V13.00,2013-02-26 21:21:00,
2013-02-26 16:26:00,38.5,25.0,30.08,SE,137,4.0,6.3,58,0.00,,OVC040,0.00,VWS V13.00,2013-02-26 21:26:00,
2013-02-26 16:31:00,38.5,25.4,30.08,SE,139,3.6,6.3,59,0.00,,OVC040,0.00,VWS V13.00,2013-02-26 21:31:00,
2013-02-26 16:36:00,38.3,25.2,30.08,SE,136,6.3,7.6,59,0.00,,OVC028,0.00,VWS V13.00,2013-02-26 21:36:00,
2013-02-26 16:41:00,38.1,25.1,30.08,ESE,102,5.4,6.3,59,0.00,,OVC028,0.00,VWS V13.00,2013-02-26 21:41:00,
2013-02-26 16:46:00,37.9,24.9,30.05,SE,128,3.6,10.5,59,0.00,,OVC028,0.00,VWS V13.00,2013-02-26 21:46:00,
2013-02-26 16:51:00,37.8,25.5,30.05,East,84,5.4,10.5,61,0.00,,OVC028,0.00,VWS V13.00,2013-02-26 21:51:00,
2013-02-26 16:56:00,37.6,25.8,30.05,East,95,5.8,10.5,62,0.00,,OVC028,0.00,VWS V13.00,2013-02-26 21:56:00,
2013-02-26 17:01:00,37.4,25.6,30.02,ENE,71,3.6,6.3,62,0.00,,OVC028,0.00,VWS V13.00,2013-02-26 22:01:00,
2013-02-26 17:06:00,37.4,26.0,30.02,East,90,4.9,12.8,63,0.00,,OVC028,0.00,VWS V13.00,2013-02-26 22:06:00,
2013-02-26 17:11:00,37.2,26.2,30.02,ESE,111,2.7,12.8,64,0.00,,OVC028,0.00,VWS V13.00,2013-02-26 22:11:00,
2013-02-26 17:16:00,37.4,26.0,30.05,ESE,118,3.6,12.8,63,0.00,,OVC037,0.00,VWS V13.00,2013-02-26 22:16:00,
2013-02-26 17:21:00,37.0,26.0,30.05,East,99,5.8,10.1,64,0.00,,OVC028,0.00,VWS V13.00,2013-02-26 22:21:00,
2013-02-26 17:26:00,37.0,26.0,30.05,East,83,3.6,10.1,64,0.00,,OVC028,0.00,VWS V13.00,2013-02-26 22:26:00,
2013-02-26 17:31:00,36.9,25.8,30.05,ESE,117,2.7,10.1,64,0.00,,OVC028,0.00,VWS V13.00,2013-02-26 22:31:00,
2013-02-26 17:36:00,36.9,25.8,30.05,SE,142,5.8,10.1,64,0.00,,OVC028,0.00,VWS V13.00,2013-02-26 22:36:00,
2013-02-26 17:42:00,36.9,26.2,30.05,SE,124,5.8,8.1,65,0.00,,OVC028,0.00,VWS V13.00,2013-02-26 22:42:00,
2013-02-26 17:47:00,36.7,26.0,30.05,ESE,121,5.4,8.1,65,0.00,,OVC028,0.00,VWS V13.00,2013-02-26 22:47:00,
2013-02-26 17:52:00,36.7,26.0,30.05,SE,131,5.4,8.1,65,0.00,,OVC028,0.00,VWS V13.00,2013-02-26 22:52:00,
2013-02-26 17:57:00,36.7,26.4,30.05,ENE,75,5.4,8.1,66,0.00,,OVC028,0.00,VWS V13.00,2013-02-26 22:57:00,
2013-02-26 18:02:00,36.3,26.1,30.05,East,96,7.6,8.1,66,0.00,,OVC028,0.00,VWS V13.00,2013-02-26 23:02:00,
2013-02-26 18:07:00,36.1,26.6,30.05,ESE,118,6.3,8.1,68,0.00,,OVC028,0.00,VWS V13.00,2013-02-26 23:07:00,
2013-02-26 18:12:00,36.1,27.0,30.05,East,97,5.4,8.1,69,0.00,,OVC028,0.00,VWS V13.00,2013-02-26 23:12:00,
2013-02-26 18:17:00,36.1,27.0,30.02,East,90,4.9,8.1,69,0.00,,OVC028,0.00,VWS V13.00,2013-02-26 23:17:00,
2013-02-26 18:22:00,36.0,27.1,30.02,ENE,67,6.3,7.6,70,0.00,,OVC028,0.00,VWS V13.00,2013-02-26 23:22:00,
2013-02-26 18:27:00,35.8,27.0,30.02,ENE,77,8.1,8.3,70,0.00,,OVC028,0.00,VWS V13.00,2013-02-26 23:27:00,
2013-02-26 18:32:00,35.8,27.0,30.02,ENE,69,6.7,8.7,70,0.00,,OVC026,0.00,VWS V13.00,2013-02-26 23:32:00,
2013-02-26 18:37:00,35.8,27.3,30.02,ESE,117,5.4,8.7,71,0.00,,OVC026,0.00,VWS V13.00,2013-02-26 23:37:00,
2013-02-26 18:42:00,35.8,27.3,30.02,ENE,75,4.9,7.6,71,0.00,,OVC026,0.00,VWS V13.00,2013-02-26 23:42:00,
2013-02-26 18:47:00,35.6,27.5,30.02,East,90,3.6,7.6,72,0.00,,OVC026,0.00,VWS V13.00,2013-02-26 23:47:00,
2013-02-26 18:52:00,35.6,27.5,30.02,East,96,6.3,7.6,72,0.00,,OVC026,0.00,VWS V13.00,2013-02-26 23:52:00,
2013-02-26 18:57:00,35.6,27.5,30.02,ENE,68,5.8,8.1,72,0.00,,OVC026,0.00,VWS V13.00,2013-02-26 23:57:00,
2013-02-26 19:02:00,35.6,27.5,30.02,East,86,6.3,7.6,72,0.00,,OVC026,0.00,VWS V13.00,2013-02-27 00:02:00,
2013-02-26 19:07:00,35.4,27.3,30.02,East,85,5.4,8.3,72,0.00,,,0.00,VWS V13.00,2013-02-27 00:07:00,
2013-02-26 19:12:00,35.4,27.3,30.02,East,79,4.0,8.3,72,0.00,,,0.00,VWS V13.00,2013-02-27 00:12:00,
2013-02-26 19:17:00,35.4,27.3,29.99,East,98,7.6,13.2,72,0.00,,,0.00,VWS V13.00,2013-02-27 00:17:00,
2013-02-26 19:22:00,35.1,27.3,29.99,East,81,8.1,8.7,73,0.00,,,0.00,VWS V13.00,2013-02-27 00:22:00,
2013-02-26 19:27:00,34.9,27.1,29.99,East,81,6.3,8.7,73,0.00,,,0.00,VWS V13.00,2013-02-27 00:27:00,
2013-02-26 19:32:00,34.7,27.3,29.99,East,94,6.3,8.7,74,0.00,,,0.00,VWS V13.00,2013-02-27 00:32:00,
2013-02-26 19:37:00,34.5,27.1,29.99,ENE,71,5.4,11.0,74,0.00,,,0.00,VWS V13.00,2013-02-27 00:37:00,
2013-02-26 19:43:00,34.5,27.4,29.99,East,86,5.4,8.1,75,0.00,,,0.00,VWS V13.00,2013-02-27 00:43:00,
2013-02-26 19:48:00,34.3,27.6,29.99,ENE,62,6.3,8.7,76,0.00,,,0.00,VWS V13.00,2013-02-27 00:48:00,
2013-02-26 19:53:00,34.3,27.6,29.99,East,87,8.1,8.7,76,0.00,,,0.00,VWS V13.00,2013-02-27 00:53:00,
2013-02-26 19:58:00,34.3,27.9,29.99,ENE,69,5.4,8.7,77,0.00,,,0.00,VWS V13.00,2013-02-27 00:58:00,
2013-02-26 20:03:00,34.3,27.9,29.96,East,81,5.4,8.3,77,0.00,,,0.00,VWS V13.00,2013-02-27 01:03:00,
2013-02-26 20:08:00,34.2,28.0,29.96,ENE,71,8.1,8.3,78,0.00,,,0.00,VWS V13.00,2013-02-27 01:08:00,
2013-02-26 20:13:00,34.2,28.0,29.96,East,87,6.3,11.0,78,0.00,,,0.00,VWS V13.00,2013-02-27 01:13:00,
2013-02-26 20:18:00,34.2,28.3,29.96,East,81,7.6,11.0,79,0.00,,,0.00,VWS V13.00,2013-02-27 01:18:00,
2013-02-26 20:23:00,34.2,28.3,29.96,ENE,65,8.1,8.7,79,0.00,,,0.00,VWS V13.00,2013-02-27 01:23:00,
2013-02-26 20:28:00,34.2,28.3,29.96,East,89,5.8,10.5,79,0.00,,,0.00,VWS V13.00,2013-02-27 01:28:00,
2013-02-26 20:33:00,34.2,28.3,29.93,ESE,105,5.8,10.5,79,0.00,,,0.00,VWS V13.00,2013-02-27 01:33:00,
2013-02-26 20:38:00,34.2,28.3,29.93,ENE,58,6.7,10.5,79,0.00,,,0.00,VWS V13.00,2013-02-27 01:38:00,
2013-02-26 20:43:00,34.2,28.0,29.93,ENE,66,4.9,10.5,78,0.00,,,0.00,VWS V13.00,2013-02-27 01:43:00,
2013-02-26 20:48:00,34.0,27.9,29.93,ENE,71,8.1,10.5,78,0.00,,,0.00,VWS V13.00,2013-02-27 01:48:00,
2013-02-26 20:53:00,34.0,27.9,29.93,East,87,11.4,11.4,78,0.00,,,0.00,VWS V13.00,2013-02-27 01:53:00,
2013-02-26 20:58:00,34.0,27.5,29.93,East,95,8.7,11.4,77,0.00,,,0.00,VWS V13.00,2013-02-27 01:58:00,
2013-02-26 21:03:00,34.0,27.5,29.93,East,86,5.4,11.0,77,0.00,,,0.00,VWS V13.00,2013-02-27 02:03:00,
2013-02-26 21:08:00,34.0,27.5,29.93,ENE,68,11.0,11.0,77,0.00,,,0.00,VWS V13.00,2013-02-27 02:08:00,
2013-02-26 21:14:00,33.8,27.4,29.93,East,90,7.6,11.9,77,0.00,,,0.00,VWS V13.00,2013-02-27 02:14:00,
2013-02-26 21:19:00,33.8,27.4,29.93,NNE,29,7.6,12.8,77,0.00,,,0.00,VWS V13.00,2013-02-27 02:19:00,
2013-02-26 21:24:00,33.6,27.5,29.93,East,92,7.2,10.5,78,0.00,,,0.00,VWS V13.00,2013-02-27 02:24:00,
2013-02-26 21:29:00,33.4,27.6,29.93,ENE,64,8.3,11.0,79,0.00,,,0.00,VWS V13.00,2013-02-27 02:29:00,
2013-02-26 21:34:00,33.3,27.8,29.93,ENE,64,8.1,11.0,80,0.00,,OVC065,0.00,VWS V13.00,2013-02-27 02:34:00,
2013-02-26 21:39:00,33.1,27.9,29.93,East,89,7.6,11.0,81,0.00,,OVC065,0.00,VWS V13.00,2013-02-27 02:39:00,
2013-02-26 21:44:00,33.1,28.2,29.93,East,85,8.7,11.0,82,0.00,,OVC065,0.00,VWS V13.00,2013-02-27 02:44:00,
2013-02-26 21:49:00,33.1,28.5,29.93,East,91,10.5,11.0,83,0.00,,OVC065,0.00,VWS V13.00,2013-02-27 02:49:00,
2013-02-26 21:54:00,32.9,28.6,29.93,ENE,77,8.3,12.3,84,0.00,,OVC065,0.00,VWS V13.00,2013-02-27 02:54:00,
2013-02-26 22:00:00,32.7,28.4,29.93,ENE,75,8.1,12.3,84,0.00,,OVC065,0.00,VWS V13.00,2013-02-27 03:00:00,
2013-02-26 22:05:00,32.7,28.7,29.90,ENE,68,8.1,11.0,85,0.00,,OVC065,0.00,VWS V13.00,2013-02-27 03:05:00,
2013-02-26 22:10:00,32.7,29.0,29.90,ENE,70,8.1,11.0,86,0.00,,OVC065,0.00,VWS V13.00,2013-02-27 03:10:00,
2013-02-26 22:15:00,32.7,29.6,29.90,East,79,7.6,11.0,88,0.00,,OVC065,0.00,VWS V13.00,2013-02-27 03:15:00,
2013-02-26 22:20:00,32.7,29.8,29.90,East,88,8.3,11.0,89,0.00,,OVC065,0.00,VWS V13.00,2013-02-27 03:20:00,
2013-02-26 22:25:00,32.7,29.8,29.90,ENE,72,11.0,11.0,89,0.00,,OVC065,0.00,VWS V13.00,2013-02-27 03:25:00,
2013-02-26 22:30:00,32.7,30.1,29.90,ENE,58,7.6,11.0,90,0.00,,OVC065,0.00,VWS V13.00,2013-02-27 03:30:00,
2013-02-26 22:35:00,32.7,30.4,29.87,ENE,62,7.6,11.0,91,0.00,,OVC065,0.00,VWS V13.00,2013-02-27 03:35:00,
2013-02-26 22:40:00,32.7,30.7,29.87,ENE,62,8.7,12.3,92,0.00,,OVC033,0.00,VWS V13.00,2013-02-27 03:40:00,
2013-02-26 22:45:00,32.7,30.7,29.87,ENE,73,7.6,11.0,92,0.00,,OVC033,0.00,VWS V13.00,2013-02-27 03:45:00,
2013-02-26 22:50:00,32.7,30.9,29.84,ENE,57,8.3,12.8,93,0.00,,OVC033,0.00,VWS V13.00,2013-02-27 03:50:00,
2013-02-26 22:55:00,32.7,30.9,29.84,ENE,74,11.0,12.8,93,0.00,,OVC033,0.00,VWS V13.00,2013-02-27 03:55:00,
2013-02-26 23:00:00,32.7,31.2,29.84,East,80,10.1,12.8,94,0.00,,OVC033,0.00,VWS V13.00,2013-02-27 04:00:00,
2013-02-26 23:05:00,32.7,31.2,29.84,East,88,8.1,12.8,94,0.00,,OVC033,0.00,VWS V13.00,2013-02-27 04:05:00,
2013-02-26 23:10:00,32.7,31.2,29.84,ENE,73,8.1,12.8,94,0.00,,OVC033,0.00,VWS V13.00,2013-02-27 04:10:00,
2013-02-26 23:15:00,32.7,31.5,29.84,NE,54,11.0,12.8,95,0.00,,OVC033,0.00,VWS V13.00,2013-02-27 04:15:00,
2013-02-26 23:20:00,32.7,31.5,29.81,ENE,65,11.9,13.2,95,0.00,,OVC033,0.00,VWS V13.00,2013-02-27 04:20:00,
2013-02-26 23:25:00,32.7,31.5,29.81,ENE,64,7.6,11.9,95,0.00,,OVC033,0.00,VWS V13.00,2013-02-27 04:25:00,
2013-02-26 23:30:00,32.7,31.7,29.81,ENE,57,5.8,11.9,96,0.00,,OVC033,0.00,VWS V13.00,2013-02-27 04:30:00,
2013-02-26 23:35:00,32.7,31.7,29.81,NE,48,6.3,11.9,96,0.00,,-RA,0.00,VWS V13.00,2013-02-27 04:35:00,
2013-02-26 23:40:00,32.7,31.7,29.81,ENE,73,8.1,8.1,96,0.04,,-RA,0.04,VWS V13.00,2013-02-27 04:40:00,
2013-02-26 23:45:00,32.7,31.7,29.81,East,101,8.1,8.3,96,0.04,,-RA,0.04,VWS V13.00,2013-02-27 04:45:00,
2013-02-26 23:50:00,32.7,31.7,29.81,East,96,7.6,11.4,96,0.04,,-RA,0.04,VWS V13.00,2013-02-27 04:50:00,
2013-02-26 23:55:00,32.7,32.0,29.81,ENE,68,8.1,11.4,97,0.04,,-RA,0.04,VWS V13.00,2013-02-27 04:55:00,